Timeline UpdatesTrip UpdatesNews PostsPvt PostsTravel TipsAdmin PostsConv PostsFollowed PostsChat RequestsBlog PostsPNR Posts

Disclaimer
Search
 
 
Sat Apr 19, 2014 04:52:43 ISTHomeTrainsΣChainsAtlasPNRForumGalleryNewsFAQTripsMembersLoginFeedback
No Recent News for this Train
Other Trains in the News **new
Latest...
..
Mon Dec 30, 2013 (12:01AM)
⇐ Return Journey: Train# 19038

19037/Avadh Express

Oct 03 2013 (4:56PM)
Change Departure Station:
Change Arrival Station:
Post a Train Travel TipPost a Train Travel Tip **new
Post a Comment/Question/Picture/VideoPost a Comment/Question/Picture/Video
Pantry/Catering
✓ Pantry Car Avbl
✓ Catering Avbl
Loco/Rake Reversals
LJN/Lucknow Junction (6);
RSA - Rake Sharing
19037/19038 have RSA with 19039/19040.
Rake/Coach Composition
Wap 4 BRC shed-SLR-S15-S14-S13-S12-S11-S10-S9-S8-S7-S6-S5-S4-S3-S2-S1-PC-B2-B1-A1-GEN-GEN-SLR; Total 23 Coaches
Loco
BDTS-LJN : BRC/CNB WAP-4; LJN-GKP : GD WDM-3A Entry NO.731585
News    PNR    Forum    Time-Table    Availability    Fare Chart    Map    Arr/Dep History    Trips    Gallery    ΣChains    X/O    Timeline    
Travel Time: 34h 32m    58 halts    Distance: 1592 km    Avg Speed: 46 km/hr
Type: Mail/Express
Zone: WR/Western
Departs @ 03:08 (Avg 7m late)
Platform# 1
 M WT S
Surat/ST 
Arrives @ 13:40 +1 night (Avg 28m late)
Platform# 7
S T TF 
Gorakhpur Junction/GKP 

58 halts. 241 intermediate Stations between Surat and Gorakhpur Junction

Show ALL intermediate Stations  Show Old Time-Table

#CodeStation NameX/OArrivesAvgDepartsAvgHaltPFDay#KmSpeedElevZoneAddress
1BDTSMumbai Bandra Terminus (5)  -22:40+111-252.2234mWRMumbai 400050, Maharashtra
2ADHMumbai Andheri (9)  22:56+322:58+42m81-246.05012mWRMumbai, Maharashtra
3BVIMumbai Borivali (8)  23:13+1023:18+115m61-233.46719mWRMumbai - 400092, Maharashtra
4BORBoisar (3)  00:19+1700:21+172m22-165.26017mWRBoisar Tel.no-02525-266626, Maharashtra
5VAPIVapi (3)X  01:31+1101:33+112m12-94.96327mWRVapi, Gujarat
6BLValsad (3)X  01:58+902:00+112m22-68.76515mWRValsad, Gujarat
7ST»Surat (4)»X  03:03+703:08+75m120.06519mWRSurat 395001, Gujarat
8AKVAnkleshwar Junction (4)X  03:54+1403:56+152m1249.97319mWRAnkleshwar, Gujarat
9BRCVadodara Junction (7)X  05:02+1605:12+1510m32129.87036mWRVadodara, Gujarat
10GDAGodhra Junction (3)  06:15+906:18+93m22203.780122mWRGodhra, Gujarat
11DHDDahod (3)  07:13+3607:15+362m32276.890313mWRDahod, Gujarat
12MGNMeghnagar (3)  07:37+4207:39+432m12309.974317mWRJhabua, Madhya Pradesh
13BMIBamnia (2)X  08:08+4708:10+462m12345.434392mWRBamnia, Madhya Pradesh
14RTMRatlam Junction (7)  09:30+1509:50+1620m62390.275495mWRRatlam, Madhya Pradesh
15KUHKhachrod (2)X  10:12+2010:14+202m22417.820497mWRUjjain, Madhya Pradesh
16NADNagda Junction (4)X  10:55+211:00+85m--2431.673468mWRNagda, Madhya Pradesh
17MEPMahidpur Road  11:14+1811:16+212m--2448.784493mWCRGogapur, Madhya Pradesh
18VMAVikramgarh Alot (2)X  11:33+2411:35+262m22472.673443mWCRKota Division, Madhya Pradesh
19CMUChau Mahla (3)  11:53+3111:55+322m22494.471426mWCRJhalawar, Rajasthan
20SVASuwasra (2)  12:08+3512:10+352m--2509.862450mWCRSuwasra, Madhya Pradesh
21SGZShamgarh (3)X  12:23+3812:25+392m--2523.281463mWCRMandsaur, Madhya Pradesh
22GOHGaroth (2)  12:33+4212:35+422m22534.076441mWCRMadhya Pradesh 458880, Madhya Pradesh
23BWMBhawani Mandi (3)  12:53+4112:55+412m--2556.776384mWCRBhawani Mandi, Madhya Pradesh
24JHWJhalawar Road (3)  13:08+4213:10+422m--2573.274361mWCRJhalawar City, Rajasthan
25RMARamganj Mandi Junction (3)  13:20+4213:22+422m--2585.554358mWCRRamganj Mandi, Rajasthan
26MKXMorak (2)  13:32+4313:34+432m22594.681337mWCRMorak, Rajasthan
27DKNTDakaniya Talav (2)X  14:13+4614:15+472m12647.522278mWCRKota, Rajasthan
28KOTAKota Junction (5)X  14:40+3714:50+3810m12656.8110256mWCRKota, Rajasthan
29LKELakheri (3)  15:23+5715:25+572m22717.466228mWCRBundi, Rajasthan
30IDGIndargarh Sumerganj Mandi (2)  15:35+1:0015:37+1:002m22728.445247mWCRIndargarh, Rajasthan
31SWMSawai Madhopur Junction (4)X  16:25+4416:30+435m--2764.671266mWCRSawai Madhopur, Rajasthan
32GGCGangapur City (3)X  17:24+3817:25+421m--2828.582270mWCRGangapur, Rajasthan
33SMBJShri Mahabirji (3)  17:50+5017:52+502m22862.661240mWCRKarauli, Rajasthan
34HANHindaun City (2)X  18:02+4818:04+492m--2872.826230mWCRKarauli, Rajasthan
35BXNBayana Junction (3)  19:20+2219:25+265m12905.747198mWCRBayana, Rajasthan
36RBSRupbas (2)X  20:09+2520:11+312m--2939.843178mNCRJAGNER ROAD, Rajasthan
37FTSFatehpur Sikri (2)  20:31+2720:33+332m12954.050176mNCRAgra, Uttar Pradesh
38KLBKiraoli (1)  20:48+3320:50+352m12966.436174mNCRKiraoli, Uttar Pradesh
39IDHIdgah Agra Junction (3)  21:26+3421:28+412m12988.18168mNCRAgra, Uttar Pradesh
40AFAgra Fort (3)  21:45+3721:55+5110m12990.215170mNCRRakabganj, Uttar Pradesh
41TDLTundla Junction (4)XO  23:25+5423:35+1:0010m321013.133167mNCRDistt.Firozabad, Uttar Pradesh
42FZDFirozabad (4)X  00:05+5400:07+592m231029.757164mNCRFirozabad, Uttar Pradesh
43SKBShikohabad Junction (4)X  00:28+5700:30+1:002m231049.585166mNCRDistrict Firozabad, Uttar Pradesh
44ETWEtawah (5)X  01:09+1:0601:11+1:132m331104.970154mNCRDistt. Etawah, Uttar Pradesh
45BNTBharthana (3)XO  01:28+1:1301:30+1:172m331124.848147mNCRBharthana, Uttar Pradesh
46PHDPhaphund (4)X  02:15+1:0302:17+1:072m--31161.136146mNCRdist. Auraiya, Uttar Pradesh
47CNBKanpur Central (10)  04:35+2904:45+3110m--31244.350128mNCRKanpur, Uttar Pradesh
48ONUnnao Junction (5)X  05:06+4405:08+442m--31261.742129mNRUnnao, Uttar Pradesh
49LJNLucknow Junction (6)↵¶06:25+3606:50+3725m431315.612126mNERLucknow, Uttar Pradesh
50LCLucknow City (3)  07:14+3707:16+382m--31320.327127mNERLucknow, Uttar Pradesh
51BNZBadshahnagar (2)  07:30+3807:35+365m--31326.643116mNERLucknow, Uttar Pradesh
52GTNRGomti Nagar (3)  07:41+3907:43+402m131330.945117mNERLucknow, Uttar Pradesh
53BBKBarabanki Junction (4)  08:10+4108:12+412m--31351.258122mNRPin-225001, Uttar Pradesh
54BUWBurhwal Junction (3)X  08:40+4808:42+482m--31378.354119mNERBarabanki, Uttar Pradesh
55JLDJarwal Road (2)X  09:00+5009:02+522m--31394.457112mNERBehraich, Uttar Pradesh
56CLJColonelGanj (2)X  09:20+5809:22+1:002m--31411.633108mNERGonda, Uttar Pradesh
57GDGonda Junction (3)  10:15+4610:25+4410m231440.573110mNERGonda 271001, Uttar Pradesh
58MURMankapur Junction (5)X  10:48+4810:50+472m--31468.465104mNERDistrict Gonda, Uttar Pradesh
59MSWMaskanwa (2)  11:03+4811:05+482m--31482.433103mNERChhapaiya Rd, Uttar Pradesh
60SNCSwami Narayan Chhapia (2)11:13+4611:14+461m--31486.8114100mNERS Narayan Chpla, Uttar Pradesh
61BVBabhnan (2)  11:20+5011:22+512m--31498.166101mNERDistrict- Basti, Uttar Pradesh
62BSTBasti (4)  11:50+4811:55+475m231528.97790mNERBasti 272001, Uttar Pradesh
63KLDKhalilabad (3)  12:18+5212:20+522m--31558.53686mNERKhalilabad- 272175, Uttar Pradesh
64MHHMaghar (3)  12:34+4712:36+472m--31567.03383mNERNH 28. Distt- SantKabirNagar- 272173, Uttar Pradesh
65SWASahjanwa (2)X  12:51+4212:53+412m--31575.22280mNERGorakhpur - 273209, Uttar Pradesh
66GKP•Gorakhpur Junction (10)•  13:40+28-731592.4-84mNERGorakhpur 273001, Uttar Pradesh
Scroll to Top
Scroll to Bottom